TimeCST,TemperatureF,Dew PointF,Humidity,Sea Level PressureIn,VisibilityMPH,Wind Direction,Wind SpeedMPH,Gust SpeedMPH,PrecipitationIn,Events,Conditions,WindDirDegrees,DateUTC
12:51 AM,73.0,62.1,68,30.05,10.0,South,10.4,-,N/A,,Scattered Clouds,170,2012-11-09 06:51:00
1:51 AM,72.0,63.0,73,30.04,10.0,South,8.1,-,N/A,,Scattered Clouds,170,2012-11-09 07:51:00
2:51 AM,69.1,61.0,75,30.04,10.0,South,4.6,-,N/A,,Partly Cloudy,170,2012-11-09 08:51:00
3:51 AM,66.9,60.1,79,30.03,10.0,South,3.5,-,N/A,,Scattered Clouds,180,2012-11-09 09:51:00
4:51 AM,66.0,59.0,78,30.02,10.0,SSE,8.1,-,N/A,,Scattered Clouds,150,2012-11-09 10:51:00
5:51 AM,66.2,60.8,83,30.03,10.0,South,6.9,-,N/A,,Partly Cloudy,180,2012-11-09 11:51:00
6:51 AM,64.9,60.1,84,30.04,10.0,SSE,5.8,-,N/A,,Scattered Clouds,160,2012-11-09 12:51:00
7:51 AM,73.0,64.0,73,30.05,10.0,SSE,10.4,-,N/A,,Scattered Clouds,160,2012-11-09 13:51:00
8:51 AM,80.6,64.4,58,30.07,10.0,South,20.7,34.5,N/A,,Scattered Clouds,170,2012-11-09 14:51:00
9:51 AM,82.9,64.0,53,30.08,10.0,South,21.9,33.4,N/A,,Scattered Clouds,170,2012-11-09 15:51:00
10:51 AM,86.0,62.1,44,30.08,10.0,South,25.3,35.7,N/A,,Scattered Clouds,170,2012-11-09 16:51:00
11:51 AM,87.1,62.1,43,30.06,10.0,SSE,25.3,38.0,N/A,,Scattered Clouds,160,2012-11-09 17:51:00
12:51 PM,87.1,60.1,40,30.02,10.0,SSE,26.5,36.8,N/A,,Scattered Clouds,150,2012-11-09 18:51:00
1:51 PM,88.0,60.1,39,30.00,10.0,SSE,26.5,35.7,N/A,,Scattered Clouds,150,2012-11-09 19:51:00
2:51 PM,87.1,61.0,41,29.99,10.0,SSE,24.2,31.1,N/A,,Partly Cloudy,150,2012-11-09 20:51:00
3:51 PM,84.9,61.0,44,29.98,10.0,SSE,21.9,31.1,N/A,,Partly Cloudy,150,2012-11-09 21:51:00
4:51 PM,82.0,62.1,51,29.98,10.0,SSE,21.9,29.9,N/A,,Partly Cloudy,150,2012-11-09 22:51:00
5:51 PM,79.0,62.1,56,29.99,10.0,SE,17.3,25.3,N/A,,Partly Cloudy,140,2012-11-09 23:51:00
6:51 PM,77.0,62.1,60,30.01,10.0,SE,11.5,-,N/A,,Partly Cloudy,140,2012-11-10 00:51:00
7:51 PM,75.0,62.1,64,30.02,10.0,SE,10.4,-,N/A,,Partly Cloudy,140,2012-11-10 01:51:00
8:51 PM,73.9,63.0,68,30.03,10.0,SSE,10.4,-,N/A,,Scattered Clouds,150,2012-11-10 02:51:00
9:51 PM,73.9,63.0,68,30.04,10.0,SSE,10.4,-,N/A,,Partly Cloudy,150,2012-11-10 03:51:00
10:51 PM,73.0,62.1,68,30.04,10.0,SSE,11.5,-,N/A,,Partly Cloudy,150,2012-11-10 04:51:00
11:51 PM,73.0,62.1,68,30.03,10.0,SSE,11.5,-,N/A,,Partly Cloudy,150,2012-11-10 05:51:00